This is the latest recevied weather packets stored in our database for station/object JP3QZN-13. If no packets are shown the sender has not sent any weather packets the latest 10 day(s).
| Time | Temp. | Humidity | Pressure | Rain* | Wind** | Luminosity | Snow |
|---|---|---|---|---|---|---|---|
| 1777926613 | 11.67° C | 65% | 1025.2 hPa | 0 mm | - | - | - |
| 1777924813 | 12.22° C | 64% | 1024.4 hPa | 0 mm | - | - | - |
| 1777923012 | 12.22° C | 64% | 1023.7 hPa | 0 mm | - | - | - |
| 1777921211 | 12.78° C | 63% | 1023.4 hPa | 0 mm | - | - | - |
| 1777919410 | 12.78° C | 62% | 1022.8 hPa | 0 mm | - | - | - |
| 1777915808 | 13.33° C | 60% | 1022 hPa | 0 mm | - | - | - |
| 1777914007 | 13.89° C | 59% | 1021.6 hPa | 0 mm | - | - | - |
| 1777912206 | 13.89° C | 58% | 1021.2 hPa | 0 mm | - | - | - |
| 1777910406 | 13.89° C | 58% | 1020.9 hPa | 0 mm | - | - | - |
| 1777908605 | 14.44° C | 58% | 1020.9 hPa | 0 mm | - | - | - |
| 1777906805 | 14.44° C | 58% | 1020.5 hPa | 0 mm | - | - | - |
| 1777905003 | 15° C | 58% | 1020.2 hPa | 0 mm | - | - | - |
| 1777903202 | 15° C | 57% | 1019.9 hPa | 0 mm | - | - | - |
| 1777901401 | 15.56° C | 56% | 1019.6 hPa | 0 mm | - | - | - |
| 1777899600 | 16.11° C | 55% | 1019.2 hPa | 0 mm | - | - | - |
| 1777897799 | 16.67° C | 54% | 1018.8 hPa | 0 mm | - | - | - |
| 1777895999 | 16.67° C | 54% | 1018.1 hPa | 0 mm | - | - | - |
| 1777894198 | 17.22° C | 53% | 1017.3 hPa | 0 mm | - | - | - |
| 1777892427 | 17.78° C | 52% | 1016.5 hPa | 0 mm | - | - | - |
| 1777892398 | 17.78° C | 52% | 1016.4 hPa | 0 mm | - | - | - |
| 1777890626 | 17.78° C | 52% | 1015.5 hPa | 0 mm | - | - | - |
| 1777888825 | 18.33° C | 52% | 1014.6 hPa | 0 mm | - | - | - |
| 1777887025 | 18.89° C | 51% | 1013.7 hPa | 0 mm | - | - | - |
| 1777885224 | 19.44° C | 53% | 1013 hPa | 0 mm | - | - | - |
| 1777881623 | 19.44° C | 54% | 1011.6 hPa | 0 mm | - | - | - |
* Rain latest hour (hover to see other rain measurements)
** Current wind speed in m/s (hover to see current wind gust speed)